EHI
3 2 2 1 0 0 0 0 0 0 0 0 0 0 0 0 0 0 0 0 0 0 0 0 0 0 0 0 0 0 0 0 0 0 0 0 0 0
3 2 1 0 0 0 0 0 0 0 0 0 0 0 0 0 0 0 0 0 0 0 0 0 0 0 0 0 0 0 0 0 0 0 0 0 0 0
2 2 1 1 0 0 0 0 0 0 0 0 0 0 0 0 0 0 0 0 0 0 0 0 0 0 0 0 0 0 0 0 0 0 0 0 0 0
2 2 2 1 0 0 0 0 0 0 0 0 0 0 0 0 0 0 0 0 0 0 0 0 0 0 0 0 0 0 0 0 0 0 0 0 0 0
2 2 2 2 0 0 0 0 0 0 0 0 0 0 0 0 0 0 0 0 0 0 0 0 0 0 0 0 0 0 0 0 0 0 0 0 0 0
1 1 2 1 0 0 0 0 0 0 0 0 0 0 0 0 0 0 0 0 0 0 0 0 0 0 0 0 0 0 0 0 0 0 0 0 0 0
1 1 1 1 0 0 0 0 0 0 0 0 0 0 0 0 0 0 0 0 0 0 0 0 0 0 0 0 0 0 0 0 0 0 0 0 0 0
2 2 1 0 0 0 0 0 0 0 0 0 0 0 0 0 0 0 0 0 0 0 0 0 0 0 0 0 0 0 0 0 0 0 0 0 0 0
3 2 1 0 0 0 0 0 0 0 0 0 0 0 0 0 0 0 0 0 0 0 0 0 0 0 0 0 0 0 0 0 0 0 0 0 0 0
2 2 1 0 0 0 0 0 0 0 0 0 0 0 0 0 0 0 0 0 0 0 0 0 0 0 0 0 0 0 0 0 0 0 0 0 0 0
1 1 0 0 0 0 0 0 0 0 0 0 0 0 0 0 0 0 0 0 0 0 0 0 0 0 0 0 0 0 0 0 0 0 0 0 0 0
0 0 0 0 0 0 0 0 0 0 0 0 0 0 0 0 0 0 0 0 0 0 0 0 0 0 0 0 0 0 0 0 0 0 0 0 0 0
0 0 0 0 0 0 0 0 0 0 0 0 0 0 0 0 0 0 0 0 0 0 0 0 0 0 0 0 0 0 0 0 0 0 0 0 0 0
0 0 0 0 0 0 0 0 0 0 0 0 0 0 0 0 0 0 0 0 0 0 0 0 0 0 0 0 0 0 0 0 0 0 0 0 0 0
0 0 0 0 0 0 0 0 0 0 0 0 0 0 0 0 0 0 0 0 0 0 0 0 0 0 0 0 0 0 0 0 0 0 0 0 0 0
0 0 0 0 0 0 0 0 0 0 0 0 0 0 0 0 0 0 0 0 0 0 0 0 0 0 0 0 0 0 0 0 0 0 0 0 0 0
0 0 0 0 0 0 0 0 0 0 0 0 0 0 0 0 0 0 0 0 0 0 0 0 0 0 0 0 0 0 0 0 0 0 0 0 0 0
0 0 0 0 0 0 0 0 0 0 0 0 0 0 0 0 0 0 0 0 0 0 0 0 0 0 0 0 0 0 0 0 0 0 0 0 0 0
0 0 0 0 0 0 0 0 0 0 0 0 0 0 0 0 0 0 0 0 0 0 0 0 0 0 0 0 0 0 0 0 0 0 0 0 0 0
0 0 0 0 0 0 0 0 0 0 0 0 0 0 0 0 0 0 0 0 0 0 0 0 0 0 0 0 0 0 0 0 0 0 0 0 0 0
0 0 0 0 0 0 0 0 0 0 0 0 0 0 0 0 0 0 0 0 0 0 0 0 0 0 0 0 0 0 0 0 0 0 0 0 0 0
0 0 0 0 0 0 0 0 0 0 0 0 0 0 0 0 0 0 0 0 0 0 0 0 0 0 0 0 0 0 0 0 0 0 0 0 0 0
0 0 0 0 0 0 0 0 0 0 0 0 0 0 0 0 0 0 0 0 0 0 0 0 0 0 0 0 0 0 0 0 0 0 0 0 0 0
Wind_Speed
2 2 2 2 2 2 2 2 2 3 3 1 1 2 2 2 2 1 2 2 3 4 4 5 5 5 5 5 5 6 6 6 6 6 7 8 8 9
1 1 2 2 2 2 2 2 3 3 3 1 1 2 3 3 3 2 2 2 1 2 3 3 3 4 4 4 5 5 5 5 5 5 6 6 7 7
1 1 2 1 1 1 1 1 2 2 3 2 1 2 2 3 4 3 2 2 2 3 1 0 1 2 2 2 3 3 3 3 3 4 5 5 6 7
0 0 1 1 1 1 1 1 1 1 1 1 2 2 2 3 3 3 3 3 2 4 5 5 4 2 1 0 1 1 2 2 3 3 4 4 5 6
1 1 1 1 1 1 1 1 1 1 0 0 1 2 2 3 3 3 4 3 3 5 6 6 6 6 5 5 3 2 0 1 2 2 3 4 4 5
3 3 2 2 1 1 1 1 2 2 2 2 2 2 2 3 3 3 3 3 3 4 5 5 6 6 6 6 5 4 3 2 2 2 3 3 3 3
4 4 4 5 6 3 2 2 3 3 3 3 2 2 3 3 3 2 2 2 2 4 3 4 4 4 4 6 6 5 4 3 3 2 2 3 3 3
4 3 4 5 7 8 8 8 6 4 3 2 2 2 2 2 3 2 2 2 2 3 2 3 3 3 3 4 7 8 6 5 4 4 4 3 3 3
4 4 4 6 6 5 8 9 9 9 6 2 3 2 2 3 2 3 2 2 2 3 2 2 3 2 3 5 7 7 7 6 5 5 5 5 4 4
6 6 5 5 6 6 6 7 8 7 7 5 4 3 4 3 2 2 1 1 1 3 3 2 3 3 3 3 7 7 7 7 7 6 5 5 5 4
7 7 6 6 8 8 7 7 7 6 8 10 10 9 10 10 7 4 3 3 3 3 3 2 3 2 2 2 4 7 7 7 7 7 7 6 6 4
6 7 10 9 10 9 6 6 6 5 5 7 8 9 8 9 10 5 3 2 2 2 4 3 3 3 2 2 3 4 4 5 6 6 6 6 6 4
5 5 6 11 11 10 8 6 5 4 5 6 6 6 6 6 6 6 4 3 3 2 3 2 2 2 2 3 3 3 4 4 4 4 5 6 6 4
5 4 6 10 11 11 8 8 8 7 5 5 5 5 5 5 5 5 5 5 3 3 3 3 2 2 2 2 3 3 3 3 3 4 4 5 4 4
6 9 9 10 9 9 11 11 8 6 5 5 5 4 4 4 4 4 5 5 5 5 5 4 3 2 2 2 3 3 3 3 3 3 4 3 3 3
6 8 10 11 9 9 9 8 6 5 4 4 3 3 4 4 5 4 4 4 4 5 6 6 5 3 2 2 2 3 3 4 4 4 4 3 3 3
5 6 6 6 6 6 6 6 6 5 5 4 4 4 4 4 4 4 4 3 3 4 5 5 5 4 2 2 2 3 4 3 4 4 3 3 3 3
7 6 6 5 5 5 5 5 5 5 5 4 4 4 4 4 4 4 4 4 4 4 4 4 5 4 3 2 1 3 4 4 4 4 3 3 4 4
7 5 5 4 4 4 4 4 4 4 4 4 4 4 4 4 3 4 4 4 4 4 4 4 4 4 4 5 4 3 4 4 4 4 4 3 4 4
5 4 4 3 3 4 4 4 4 4 4 4 4 4 4 3 4 4 4 4 4 4 4 4 4 4 4 4 4 5 5 4 4 5 4 3 3 4
4 4 3 3 3 3 3 3 3 4 4 4 4 4 4 3 3 4 4 4 4 4 5 5 5 6 4 3 3 4 4 4 4 4 5 4 4 4
3 3 3 2 2 2 2 3 3 3 4 4 4 4 4 3 4 4 4 4 4 4 5 4 5 4 3 3 4 5 6 5 4 4 4 4 4 4
2 2 2 2 2 2 2 3 3 3 3 3 3 4 4 4 4 3 4 4 4 4 5 5 5 4 4 4 4 5 6 7 5 5 4 5 6 6
Wind_Direction
234 227 231 246 233 233 229 219 231 270 285 310 326 340 336 339 336 301 271 262 247 241 236 235 236 239 241 239 241 242 237 235 237 237 241 247 249 250
227 229 246 258 250 238 229 228 224 231 262 294 297 328 349 357 13 352 320 324 290 249 238 232 230 226 223 223 222 225 227 229 233 237 241 244 247 250
268 250 267 272 273 271 238 225 223 215 243 288 324 345 3 357 353 357 0 1 19 26 15 294 216 213 210 215 221 219 218 223 229 237 244 248 249 250
306 341 304 300 285 295 282 259 244 224 224 275 333 353 355 354 352 358 4 12 16 36 41 46 47 42 42 145 209 212 216 225 234 245 251 254 254 254
57 46 353 24 8 10 36 8 7 55 105 139 343 348 348 360 1 6 12 7 23 35 41 46 45 46 45 45 44 35 314 258 264 273 273 270 270 267
44 47 45 47 20 18 46 47 65 65 68 73 37 12 3 346 8 5 5 11 22 21 24 34 36 40 38 40 42 36 23 360 312 285 280 276 274 276
55 51 57 65 63 59 63 63 74 76 74 69 49 32 15 2 358 346 353 349 29 22 13 24 29 36 32 28 26 27 25 21 16 357 322 297 286 278
61 47 51 53 60 61 65 67 73 83 80 71 56 35 354 338 338 349 356 4 7 359 1 15 24 32 26 31 28 29 25 25 28 24 12 359 342 317
56 47 50 48 56 64 64 62 59 57 61 80 64 15 346 331 340 5 13 28 20 347 347 10 8 17 24 23 22 24 23 22 27 26 19 15 7 357
56 55 58 48 52 65 71 65 59 51 50 57 58 33 20 360 347 342 333 5 23 20 15 17 1 357 3 14 20 21 19 16 17 12 8 8 3 359
54 52 57 56 50 58 70 68 57 46 51 56 55 45 39 36 32 37 31 38 23 8 9 8 351 334 341 358 14 22 22 19 17 13 9 9 6 5
61 55 57 61 55 56 65 68 62 39 39 40 37 32 32 34 36 37 31 42 25 6 4 359 357 354 341 340 350 358 4 5 4 3 4 8 12 16
73 59 54 60 57 54 58 60 60 59 55 50 42 33 29 27 25 26 27 35 44 26 354 349 353 356 334 318 330 343 352 353 355 359 1 4 9 20
81 70 64 62 61 56 57 53 53 55 56 52 45 32 23 16 11 18 28 34 37 29 360 2 357 341 332 330 331 333 340 349 350 350 353 359 11 19
82 80 72 64 62 59 53 50 47 50 51 51 42 25 9 3 9 14 17 19 26 28 23 12 0 341 330 323 325 327 327 337 346 344 343 351 356 360
78 71 65 60 60 54 47 42 42 44 48 44 29 15 13 18 22 14 10 4 14 9 6 8 3 352 339 329 320 330 334 330 335 340 338 338 345 353
87 70 59 53 50 46 43 38 34 32 34 28 26 23 21 20 14 6 6 9 14 359 354 353 356 356 334 313 328 339 336 333 333 335 334 337 342 344
83 75 65 57 52 44 38 32 28 24 19 20 21 18 14 12 9 8 8 8 5 355 349 347 349 355 356 1 320 324 335 330 328 330 326 324 332 341
78 74 66 56 48 41 36 31 21 13 11 16 15 10 4 3 5 6 5 1 356 349 344 345 349 354 350 343 342 341 327 326 328 329 331 323 317 325
69 72 64 54 46 39 32 24 18 14 15 12 10 6 1 358 359 356 354 351 345 342 344 349 350 341 325 316 313 317 321 316 321 324 326 320 310 302
66 64 58 51 44 36 28 22 17 13 9 5 3 357 353 351 350 345 341 342 340 339 340 337 326 317 301 296 309 326 329 326 312 310 319 320 323 324
69 65 53 43 35 32 24 17 15 12 8 5 357 352 349 345 342 340 339 338 337 334 328 328 333 335 339 336 332 328 329 334 338 331 318 307 312 319
79 64 48 33 27 22 17 14 13 7 1 354 350 345 342 338 334 331 333 334 333 339 339 335 340 344 342 335 331 328 331 334 334 335 339 337 319 297